This is the latest recevied weather packets stored in our database for station/object KD5UMO-1. If no packets are shown the sender has not sent any weather packets the latest 10 day(s).
| Time | Temp. | Humidity | Pressure | Rain* | Wind** | Luminosity | Snow |
|---|---|---|---|---|---|---|---|
| 1778096248 | 14.44° C | 80% | 1015 hPa | 0 mm | - | 172 W/m² | - |
| 1778095944 | 14.44° C | 80% | 1015 hPa | 0 mm | - | 170 W/m² | - |
| 1778095641 | 14.44° C | 80% | 1014.9 hPa | 0 mm | - | 169 W/m² | - |
| 1778095338 | 14.44° C | 80% | 1015 hPa | 0 mm | - | 187 W/m² | - |
| 1778095029 | 13.89° C | 80% | 1014.9 hPa | 0 mm | - | 193 W/m² | - |
| 1778094725 | 13.89° C | 81% | 1015.1 hPa | 0 mm | - | 160 W/m² | - |
| 1778094423 | 13.89° C | 81% | 1015.4 hPa | 0 mm | - | 125 W/m² | - |
| 1778094119 | 13.89° C | 81% | 1015.2 hPa | 0 mm | - | 101 W/m² | - |
| 1778093816 | 14.44° C | 81% | 1015.1 hPa | 0 mm | - | 159 W/m² | - |
| 1778093512 | 13.89° C | 80% | 1014.9 hPa | 0 mm | - | 256 W/m² | - |
| 1778093204 | 13.89° C | 82% | 1014.5 hPa | 0 mm | - | 303 W/m² | - |
| 1778092901 | 13.89° C | 82% | 1014.5 hPa | 0 mm | - | 252 W/m² | - |
| 1778092597 | 13.89° C | 83% | 1014 hPa | 0 mm | - | 187 W/m² | - |
| 1778092293 | 13.89° C | 83% | 1013.7 hPa | 0 mm | - | 228 W/m² | - |
| 1778091991 | 13.89° C | 83% | 1013.7 hPa | 0 mm | - | 212 W/m² | - |
| 1778091688 | 13.89° C | 82% | 1013.7 hPa | 0 mm | - | 261 W/m² | - |
| 1778091386 | 13.89° C | 82% | 1013.5 hPa | 0 mm | - | 318 W/m² | - |
| 1778091083 | 13.89° C | 83% | 1013.6 hPa | 0 mm | - | 432 W/m² | - |
| 1778090780 | 13.33° C | 83% | 1013.7 hPa | 0 mm | - | 494 W/m² | - |
| 1778090476 | 13.33° C | 85% | 1014 hPa | 0 mm | - | 394 W/m² | - |
| 1778090172 | 12.78° C | 86% | 1014.1 hPa | 0 mm | - | 253 W/m² | - |
| 1778089868 | 12.78° C | 85% | 1014.2 hPa | 0 mm | - | 231 W/m² | - |
| 1778089568 | 12.78° C | 85% | 1014.3 hPa | 0 mm | - | 212 W/m² | - |
| 1778089263 | 12.78° C | 86% | 1014.3 hPa | 0 mm | - | 196 W/m² | - |
| 1778088961 | 12.78° C | 88% | 1014.1 hPa | 0 mm | - | 182 W/m² | - |
* Rain latest hour (hover to see other rain measurements)
** Current wind speed in m/s (hover to see current wind gust speed)